"Sample Date","Sample Time","Sensor Name","Sample Value","Units","Flow Rate","Sample Interval","Sample Volume","Laser Status","Number Channels","Micron Size 0","Counts/Channel 0","Micron Size 1","Counts/Channel 1","Micron Size 2","Counts/Channel 2","Micron Size 3","Counts/Channel 3","Micron Size 4","Counts/Channel 4","Micron Size 5","Counts/Channel 5","Micron Size 6","Counts/Channel 6","Micron Size 7","Counts/Channel 7","Micron Size 8","Counts/Channel 8","Micron Size 9","Counts/Channel 9","Micron Size 10","Counts/Channel 10","Micron Size 11","Counts/Channel 11","Micron Size 12","Counts/Channel 12","Micron Size 13","Counts/Channel 13","Micron Size 14","Counts/Channel 14","Micron Size 15","Counts/Channel 15","Micron Size 16","Counts/Channel 16","Micron Size 17","Counts/Channel 17","Micron Size 18","Counts/Channel 18","Micron Size 19","Counts/Channel 19","Micron Size 20","Counts/Channel 20","Micron Size 21","Counts/Channel 21","Micron Size 22","Counts/Channel 22","Micron Size 23","Counts/Channel 23","Micron Size 24","Counts/Channel 24","Micron Size 25","Counts/Channel 25","Micron Size 26","Counts/Channel 26","Micron Size 27","Counts/Channel 27","Micron Size 28","Counts/Channel 28","Micron Size 29","Counts/Channel 29","Micron Size 30","Counts/Channel 30","Micron Size 31","Counts/Channel 31"
"07/10/06","06:00:02","AMMA06",34031.000,"cc",28289.920,6.00,2828.992,1,6,0.100,17622.000,0.200,14050.000,0.300,2189.000,0.500,128.000,1.000,42.000,5.000,0
"07/10/06","06:00:08","AMMA06",34445.000,"cc",28362.680,6.00,2836.268,1,6,0.100,17764.000,0.200,14325.000,0.300,2165.000,0.500,127.000,1.000,64.000,5.000,0
"07/10/06","06:00:14","AMMA06",34443.000,"cc",28329.772,6.00,2832.977,1,6,0.100,17762.000,0.200,14226.000,0.300,2277.000,0.500,122.000,1.000,56.000,5.000,0
"07/10/06","06:00:20","AMMA06",33957.000,"cc",28267.188,6.00,2826.719,1,6,0.100,17509.000,0.200,14082.000,0.300,2208.000,0.500,114.000,1.000,44.000,5.000,0
"07/10/06","06:00:26","AMMA06",34446.000,"cc",28300.604,6.00,2830.061,1,6,0.100,17735.000,0.200,14233.000,0.300,2293.000,0.500,121.000,1.000,64.000,5.000,0
"07/10/06","06:00:32","AMMA06",34133.000,"cc",28317.959,6.00,2831.796,1,6,0.100,17631.000,0.200,14141.000,0.300,2188.000,0.500,118.000,1.000,55.000,5.000,0
"07/10/06","06:00:38","AMMA06",34370.000,"cc",28317.000,6.00,2831.700,1,6,0.100,18036.000,0.200,13989.000,0.300,2186.000,0.500,114.000,1.000,45.000,5.000,0
"07/10/06","06:00:44","AMMA06",33828.000,"cc",28365.447,6.00,2836.545,1,6,0.100,17464.000,0.200,14047.000,0.300,2161.000,0.500,105.000,1.000,51.000,5.000,0
"07/10/06","06:00:50","AMMA06",34258.000,"cc",28289.877,6.00,2828.988,1,6,0.100,17656.000,0.200,14146.000,0.300,2280.000,0.500,122.000,1.000,54.000,5.000,0
"07/10/06","06:00:56","AMMA06",34053.000,"cc",28315.287,6.00,2831.529,1,6,0.100,17666.000,0.200,14012.000,0.300,2220.000,0.500,109.000,1.000,46.000,5.000,0
"07/10/06","06:01:02","AMMA06",34397.000,"cc",28338.203,6.00,2833.821,1,6,0.100,17935.000,0.200,13990.000,0.300,2284.000,0.500,134.000,1.000,54.000,5.000,0
"07/10/06","06:01:08","AMMA06",34218.000,"cc",28336.258,6.00,2833.626,1,6,0.100,17875.000,0.200,13938.000,0.300,2227.000,0.500,124.000,1.000,54.000,5.000,0
"07/10/06","06:01:14","AMMA06",34007.000,"cc",28305.277,6.00,2830.528,1,6,0.100,17814.000,0.200,13816.000,0.300,2197.000,0.500,128.000,1.000,52.000,5.000,0
"07/10/06","06:01:20","AMMA06",34167.000,"cc",28363.940,6.00,2836.394,1,6,0.100,17739.000,0.200,14085.000,0.300,2194.000,0.500,107.000,1.000,42.000,5.000,0
"07/10/06","06:01:26","AMMA06",34150.000,"cc",28330.311,6.00,2833.031,1,6,0.100,17762.000,0.200,13993.000,0.300,2224.000,0.500,115.000,1.000,56.000,5.000,0
"07/10/06","06:01:32","AMMA06",34146.000,"cc",28286.863,6.00,2828.687,1,6,0.100,17842.000,0.200,13999.000,0.300,2164.000,0.500,89.000,1.000,52.000,5.000,0
"07/10/06","06:01:38","AMMA06",33955.000,"cc",28280.918,6.00,2828.092,1,6,0.100,17871.000,0.200,13875.000,0.300,2071.000,0.500,90.000,1.000,48.000,5.000,0
"07/10/06","06:01:44","AMMA06",34106.000,"cc",28331.010,6.00,2833.101,1,6,0.100,17527.000,0.200,14145.000,0.300,2243.000,0.500,136.000,1.000,55.000,5.000,0
"07/10/06","06:01:50","AMMA06",33999.000,"cc",28284.297,6.00,2828.430,1,6,0.100,17604.000,0.200,13998.000,0.300,2224.000,0.500,123.000,1.000,50.000,5.000,0
"07/10/06","06:01:56","AMMA06",34198.000,"cc",28316.150,6.00,2831.615,1,6,0.100,17800.000,0.200,14075.000,0.300,2158.000,0.500,120.000,1.000,45.000,5.000,0
"07/10/06","06:02:02","AMMA06",34435.000,"cc",28343.229,6.00,2834.323,1,6,0.100,17975.000,0.200,14088.000,0.300,2229.000,0.500,103.000,1.000,40.000,5.000,0
"07/10/06","06:02:08","AMMA06",34421.000,"cc",28303.951,6.00,2830.395,1,6,0.100,17963.000,0.200,14070.000,0.300,2244.000,0.500,96.000,1.000,48.000,5.000,0
"07/10/06","06:02:14","AMMA06",34327.000,"cc",28309.881,6.00,2830.988,1,6,0.100,17736.000,0.200,14250.000,0.300,2165.000,0.500,129.000,1.000,47.000,5.000,0
"07/10/06","06:02:20","AMMA06",34164.000,"cc",28304.863,6.00,2830.487,1,6,0.100,17641.000,0.200,14076.000,0.300,2301.000,0.500,97.000,1.000,49.000,5.000,0
"07/10/06","06:02:26","AMMA06",34272.000,"cc",28335.082,6.00,2833.508,1,6,0.100,17806.000,0.200,14099.000,0.300,2219.000,0.500,109.000,1.000,39.000,5.000,0
"07/10/06","06:02:32","AMMA06",34231.000,"cc",28311.123,6.00,2831.113,1,6,0.100,17730.000,0.200,14016.000,0.300,2316.000,0.500,113.000,1.000,56.000,5.000,0
"07/10/06","06:02:38","AMMA06",34117.000,"cc",28314.217,6.00,2831.422,1,6,0.100,17735.000,0.200,13950.000,0.300,2248.000,0.500,128.000,1.000,56.000,5.000,0
"07/10/06","06:02:44","AMMA06",34375.000,"cc",28287.447,6.00,2828.745,1,6,0.100,17573.000,0.200,14288.000,0.300,2339.000,0.500,124.000,1.000,51.000,5.000,0
"07/10/06","06:02:50","AMMA06",34407.000,"cc",28344.834,6.00,2834.484,1,6,0.100,17744.000,0.200,14195.000,0.300,2305.000,0.500,118.000,1.000,45.000,5.000,0
"07/10/06","06:02:56","AMMA06",34203.000,"cc",28321.592,6.00,2832.159,1,6,0.100,17720.000,0.200,13972.000,0.300,2342.000,0.500,107.000,1.000,62.000,5.000,0
"07/10/06","06:03:02","AMMA06",34117.000,"cc",28254.398,6.00,2825.440,1,6,0.100,17334.000,0.200,14175.000,0.300,2419.000,0.500,137.000,1.000,52.000,5.000,0
"07/10/06","06:03:08","AMMA06",34547.000,"cc",28369.557,6.00,2836.956,1,6,0.100,17790.000,0.200,14271.000,0.300,2336.000,0.500,104.000,1.000,46.000,5.000,0
"07/10/06","06:03:14","AMMA06",34462.000,"cc",28291.397,6.00,2829.140,1,6,0.100,17739.000,0.200,14238.000,0.300,2323.000,0.500,112.000,1.000,50.000,5.000,0
"07/10/06","06:03:20","AMMA06",34285.000,"cc",28340.982,6.00,2834.098,1,6,0.100,17683.000,0.200,14081.000,0.300,2356.000,0.500,110.000,1.000,55.000,5.000,0
"07/10/06","06:03:26","AMMA06",34075.000,"cc",28347.332,6.00,2834.733,1,6,0.100,17409.000,0.200,14130.000,0.300,2375.000,0.500,118.000,1.000,43.000,5.000,0
"07/10/06","06:03:32","AMMA06",34482.000,"cc",28320.166,6.00,2832.017,1,6,0.100,17508.000,0.200,14451.000,0.300,2357.000,0.500,124.000,1.000,42.000,5.000,0
"07/10/06","06:03:38","AMMA06",34263.000,"cc",28334.844,6.00,2833.485,1,6,0.100,17568.000,0.200,14148.000,0.300,2391.000,0.500,109.000,1.000,47.000,5.000,0
"07/10/06","06:03:44","AMMA06",34322.000,"cc",28329.148,6.00,2832.915,1,6,0.100,17505.000,0.200,14209.000,0.300,2429.000,0.500,127.000,1.000,52.000,5.000,0
"07/10/06","06:03:50","AMMA06",33817.000,"cc",28325.809,6.00,2832.581,1,6,0.100,17153.000,0.200,14106.000,0.300,2385.000,0.500,123.000,1.000,50.000,5.000,0
"07/10/06","06:03:56","AMMA06",33947.000,"cc",28345.799,6.00,2834.580,1,6,0.100,17415.000,0.200,14044.000,0.300,2339.000,0.500,108.000,1.000,41.000,5.000,0
"07/10/06","06:04:02","AMMA06",34319.000,"cc",28274.438,6.00,2827.444,1,6,0.100,17650.000,0.200,14194.000,0.300,2320.000,0.500,100.000,1.000,55.000,5.000,0
"07/10/06","06:04:08","AMMA06",34344.000,"cc",28306.049,6.00,2830.605,1,6,0.100,17706.000,0.200,14144.000,0.300,2320.000,0.500,117.000,1.000,57.000,5.000,0
"07/10/06","06:04:14","AMMA06",34091.000,"cc",28288.193,6.00,2828.820,1,6,0.100,17828.000,0.200,13770.000,0.300,2316.000,0.500,126.000,1.000,51.000,5.000,0
"07/10/06","06:04:20","AMMA06",34240.000,"cc",28310.641,6.00,2831.064,1,6,0.100,17713.000,0.200,14011.000,0.300,2322.000,0.500,135.000,1.000,59.000,5.000,0
"07/10/06","06:04:26","AMMA06",34093.000,"cc",28286.971,6.00,2828.697,1,6,0.100,17690.000,0.200,13929.000,0.300,2324.000,0.500,111.000,1.000,39.000,5.000,0
"07/10/06","06:04:32","AMMA06",34357.000,"cc",28320.494,6.00,2832.050,1,6,0.100,17811.000,0.200,14037.000,0.300,2318.000,0.500,142.000,1.000,49.000,5.000,0
"07/10/06","06:04:38","AMMA06",34204.000,"cc",28336.895,6.00,2833.690,1,6,0.100,17652.000,0.200,14107.000,0.300,2273.000,0.500,118.000,1.000,54.000,5.000,0
"07/10/06","06:04:44","AMMA06",34516.000,"cc",28325.025,6.00,2832.503,1,6,0.100,17611.000,0.200,14340.000,0.300,2396.000,0.500,121.000,1.000,48.000,5.000,0
"07/10/06","06:04:50","AMMA06",33836.000,"cc",28345.379,6.00,2834.538,1,6,0.100,17407.000,0.200,14070.000,0.300,2196.000,0.500,120.000,1.000,43.000,5.000,0
"07/10/06","06:04:56","AMMA06",33879.000,"cc",28334.379,6.00,2833.438,1,6,0.100,17393.000,0.200,14087.000,0.300,2249.000,0.500,113.000,1.000,37.000,5.000,0
"07/10/06","06:05:02","AMMA06",34192.000,"cc",28319.869,6.00,2831.987,1,6,0.100,17755.000,0.200,14067.000,0.300,2222.000,0.500,113.000,1.000,34.000,5.000,1.000
"07/10/06","06:05:08","AMMA06",33876.000,"cc",28297.998,6.00,2829.800,1,6,0.100,17441.000,0.200,14097.000,0.300,2190.000,0.500,103.000,1.000,45.000,5.000,0
"07/10/06","06:05:14","AMMA06",33975.000,"cc",28299.996,6.00,2830.000,1,6,0.100,17586.000,0.200,13917.000,0.300,2297.000,0.500,126.000,1.000,49.000,5.000,0
"07/10/06","06:05:20","AMMA06",34085.000,"cc",28338.326,6.00,2833.833,1,6,0.100,17842.000,0.200,13909.000,0.300,2142.000,0.500,134.000,1.000,58.000,5.000,0
"07/10/06","06:05:26","AMMA06",34143.000,"cc",28316.381,6.00,2831.638,1,6,0.100,17824.000,0.200,13950.000,0.300,2200.000,0.500,116.000,1.000,53.000,5.000,0
"07/10/06","06:05:32","AMMA06",34052.000,"cc",28363.475,6.00,2836.348,1,6,0.100,17846.000,0.200,13852.000,0.300,2189.000,0.500,106.000,1.000,59.000,5.000,0
"07/10/06","06:05:38","AMMA06",34207.000,"cc",28309.625,6.00,2830.963,1,6,0.100,17680.000,0.200,14155.000,0.300,2226.000,0.500,105.000,1.000,41.000,5.000,0
"07/10/06","06:05:44","AMMA06",34134.000,"cc",28291.147,6.00,2829.115,1,6,0.100,17892.000,0.200,13882.000,0.300,2197.000,0.500,118.000,1.000,45.000,5.000,0
"07/10/06","06:05:50","AMMA06",33823.000,"cc",28299.674,6.00,2829.968,1,6,0.100,17757.000,0.200,13714.000,0.300,2199.000,0.500,106.000,1.000,47.000,5.000,0
"07/10/06","06:05:56","AMMA06",33953.000,"cc",28307.670,6.00,2830.767,1,6,0.100,17526.000,0.200,14003.000,0.300,2256.000,0.500,131.000,1.000,37.000,5.000,0
"07/10/06","06:06:02","AMMA06",33917.000,"cc",28297.059,6.00,2829.706,1,6,0.100,17720.000,0.200,13897.000,0.300,2128.000,0.500,122.000,1.000,50.000,5.000,0
"07/10/06","06:06:08","AMMA06",34301.000,"cc",28302.174,6.00,2830.218,1,6,0.100,18124.000,0.200,13858.000,0.300,2144.000,0.500,114.000,1.000,61.000,5.000,0
"07/10/06","06:06:14","AMMA06",34019.000,"cc",28288.129,6.00,2828.813,1,6,0.100,17965.000,0.200,13770.000,0.300,2130.000,0.500,104.000,1.000,50.000,5.000,0
"07/10/06","06:06:20","AMMA06",33613.000,"cc",28312.008,6.00,2831.201,1,6,0.100,17609.000,0.200,13771.000,0.300,2071.000,0.500,113.000,1.000,49.000,5.000,0
"07/10/06","06:06:26","AMMA06",33877.000,"cc",28337.818,6.00,2833.782,1,6,0.100,17986.000,0.200,13605.000,0.300,2122.000,0.500,119.000,1.000,45.000,5.000,0
"07/10/06","06:06:32","AMMA06",34613.000,"cc",28328.180,6.00,2832.818,1,6,0.100,18100.000,0.200,14084.000,0.300,2258.000,0.500,128.000,1.000,43.000,5.000,0
"07/10/06","06:06:38","AMMA06",33981.000,"cc",28334.307,6.00,2833.431,1,6,0.100,18063.000,0.200,13575.000,0.300,2171.000,0.500,121.000,1.000,51.000,5.000,0
"07/10/06","06:06:44","AMMA06",33847.000,"cc",28300.953,6.00,2830.096,1,6,0.100,17928.000,0.200,13673.000,0.300,2087.000,0.500,116.000,1.000,43.000,5.000,0
"07/10/06","06:06:50","AMMA06",34073.000,"cc",28343.922,6.00,2834.392,1,6,0.100,18167.000,0.200,13623.000,0.300,2137.000,0.500,101.000,1.000,45.000,5.000,0
"07/10/06","06:06:56","AMMA06",33826.000,"cc",28290.963,6.00,2829.096,1,6,0.100,17985.000,0.200,13647.000,0.300,2037.000,0.500,107.000,1.000,50.000,5.000,0
"07/10/06","06:07:02","AMMA06",34239.000,"cc",28366.764,6.00,2836.677,1,6,0.100,18005.000,0.200,13892.000,0.300,2186.000,0.500,103.000,1.000,53.000,5.000,0
"07/10/06","06:07:08","AMMA06",33862.000,"cc",28288.932,6.00,2828.893,1,6,0.100,17956.000,0.200,13620.000,0.300,2134.000,0.500,114.000,1.000,38.000,5.000,0
"07/10/06","06:07:14","AMMA06",33806.000,"cc",28355.684,6.00,2835.569,1,6,0.100,18023.000,0.200,13499.000,0.300,2127.000,0.500,104.000,1.000,53.000,5.000,0
"07/10/06","06:07:20","AMMA06",33896.000,"cc",28270.945,6.00,2827.095,1,6,0.100,18158.000,0.200,13561.000,0.300,2008.000,0.500,115.000,1.000,54.000,5.000,0
"07/10/06","06:07:26","AMMA06",34304.000,"cc",28332.205,6.00,2833.221,1,6,0.100,18212.000,0.200,13808.000,0.300,2108.000,0.500,123.000,1.000,53.000,5.000,0
"07/10/06","06:07:32","AMMA06",33637.000,"cc",28335.137,6.00,2833.514,1,6,0.100,17850.000,0.200,13526.000,0.300,2091.000,0.500,124.000,1.000,46.000,5.000,0
"07/10/06","06:07:38","AMMA06",33889.000,"cc",28339.422,6.00,2833.942,1,6,0.100,17889.000,0.200,13686.000,0.300,2138.000,0.500,130.000,1.000,46.000,5.000,0
"07/10/06","06:07:44","AMMA06",33545.000,"cc",28266.727,6.00,2826.673,1,6,0.100,17916.000,0.200,13480.000,0.300,1991.000,0.500,122.000,1.000,36.000,5.000,0
"07/10/06","06:07:50","AMMA06",33795.000,"cc",28273.285,6.00,2827.329,1,6,0.100,17934.000,0.200,13647.000,0.300,2060.000,0.500,117.000,1.000,37.000,5.000,0
"07/10/06","06:07:56","AMMA06",33942.000,"cc",28333.516,6.00,2833.352,1,6,0.100,18129.000,0.200,13540.000,0.300,2099.000,0.500,126.000,1.000,48.000,5.000,0
"07/10/06","06:08:02","AMMA06",33795.000,"cc",28317.693,6.00,2831.770,1,6,0.100,17775.000,0.200,13727.000,0.300,2104.000,0.500,140.000,1.000,49.000,5.000,0
"07/10/06","06:08:08","AMMA06",33360.000,"cc",28320.473,6.00,2832.047,1,6,0.100,17726.000,0.200,13463.000,0.300,2018.000,0.500,99.000,1.000,54.000,5.000,0
"07/10/06","06:08:14","AMMA06",33841.000,"cc",28283.705,6.00,2828.371,1,6,0.100,17959.000,0.200,13610.000,0.300,2110.000,0.500,117.000,1.000,45.000,5.000,0
"07/10/06","06:08:20","AMMA06",33700.000,"cc",28353.383,6.00,2835.338,1,6,0.100,18099.000,0.200,13416.000,0.300,2050.000,0.500,101.000,1.000,34.000,5.000,0
"07/10/06","06:08:26","AMMA06",33468.000,"cc",28321.559,6.00,2832.156,1,6,0.100,17648.000,0.200,13511.000,0.300,2175.000,0.500,92.000,1.000,42.000,5.000,0
"07/10/06","06:08:32","AMMA06",33611.000,"cc",28289.041,6.00,2828.904,1,6,0.100,17681.000,0.200,13648.000,0.300,2140.000,0.500,101.000,1.000,41.000,5.000,0
"07/10/06","06:08:38","AMMA06",33810.000,"cc",28292.959,6.00,2829.296,1,6,0.100,17824.000,0.200,13720.000,0.300,2128.000,0.500,97.000,1.000,41.000,5.000,0
"07/10/06","06:08:44","AMMA06",33945.000,"cc",28297.553,6.00,2829.755,1,6,0.100,17947.000,0.200,13747.000,0.300,2104.000,0.500,98.000,1.000,49.000,5.000,0
"07/10/06","06:08:50","AMMA06",33735.000,"cc",28376.412,6.00,2837.641,1,6,0.100,17805.000,0.200,13610.000,0.300,2166.000,0.500,115.000,1.000,39.000,5.000,0
"07/10/06","06:08:56","AMMA06",33715.000,"cc",28327.607,6.00,2832.761,1,6,0.100,17765.000,0.200,13661.000,0.300,2137.000,0.500,106.000,1.000,46.000,5.000,0
"07/10/06","06:09:02","AMMA06",33744.000,"cc",28311.742,6.00,2831.174,1,6,0.100,17742.000,0.200,13745.000,0.300,2122.000,0.500,94.000,1.000,41.000,5.000,0
"07/10/06","06:09:08","AMMA06",33641.000,"cc",28317.357,6.00,2831.736,1,6,0.100,17587.000,0.200,13674.000,0.300,2211.000,0.500,117.000,1.000,52.000,5.000,0
"07/10/06","06:09:14","AMMA06",33907.000,"cc",28315.586,6.00,2831.559,1,6,0.100,17837.000,0.200,13658.000,0.300,2229.000,0.500,125.000,1.000,58.000,5.000,0
"07/10/06","06:09:20","AMMA06",33616.000,"cc",28310.629,6.00,2831.063,1,6,0.100,17643.000,0.200,13543.000,0.300,2259.000,0.500,131.000,1.000,40.000,5.000,0
"07/10/06","06:09:26","AMMA06",33984.000,"cc",28315.190,6.00,2831.519,1,6,0.100,17975.000,0.200,13719.000,0.300,2121.000,0.500,127.000,1.000,42.000,5.000,0
"07/10/06","06:09:32","AMMA06",33824.000,"cc",28359.512,6.00,2835.951,1,6,0.100,17471.000,0.200,13924.000,0.300,2285.000,0.500,102.000,1.000,42.000,5.000,0
"07/10/06","06:09:38","AMMA06",33999.000,"cc",28282.621,6.00,2828.262,1,6,0.100,17795.000,0.200,13831.000,0.300,2212.000,0.500,112.000,1.000,49.000,5.000,0
"07/10/06","06:09:44","AMMA06",34174.000,"cc",28265.996,6.00,2826.600,1,6,0.100,17789.000,0.200,14040.000,0.300,2173.000,0.500,110.000,1.000,62.000,5.000,0
"07/10/06","06:09:50","AMMA06",34429.000,"cc",28360.428,6.00,2836.043,1,6,0.100,18092.000,0.200,13999.000,0.300,2167.000,0.500,115.000,1.000,56.000,5.000,0
"07/10/06","06:09:56","AMMA06",33802.000,"cc",28363.461,6.00,2836.346,1,6,0.100,17569.000,0.200,13845.000,0.300,2231.000,0.500,106.000,1.000,51.000,5.000,0
"07/10/06","06:10:02","AMMA06",34306.000,"cc",28308.828,6.00,2830.883,1,6,0.100,17980.000,0.200,13920.000,0.300,2243.000,0.500,121.000,1.000,42.000,5.000,0
"07/10/06","06:10:08","AMMA06",34147.000,"cc",28320.844,6.00,2832.085,1,6,0.100,17981.000,0.200,13731.000,0.300,2251.000,0.500,125.000,1.000,59.000,5.000,0
"07/10/06","06:10:14","AMMA06",33982.000,"cc",28306.445,6.00,2830.645,1,6,0.100,17828.000,0.200,13830.000,0.300,2164.000,0.500,118.000,1.000,42.000,5.000,0
"07/10/06","06:10:20","AMMA06",33901.000,"cc",28306.240,6.00,2830.624,1,6,0.100,17581.000,0.200,13991.000,0.300,2211.000,0.500,78.000,1.000,40.000,5.000,0
"07/10/06","06:10:26","AMMA06",34124.000,"cc",28313.471,6.00,2831.347,1,6,0.100,17775.000,0.200,13910.000,0.300,2282.000,0.500,106.000,1.000,51.000,5.000,0
"07/10/06","06:10:32","AMMA06",34001.000,"cc",28238.305,6.00,2823.831,1,6,0.100,17658.000,0.200,14026.000,0.300,2142.000,0.500,110.000,1.000,65.000,5.000,0
"07/10/06","06:10:38","AMMA06",34017.000,"cc",28362.096,6.00,2836.210,1,6,0.100,17760.000,0.200,13914.000,0.300,2150.000,0.500,140.000,1.000,53.000,5.000,0
"07/10/06","06:10:44","AMMA06",34549.000,"cc",28341.039,6.00,2834.104,1,6,0.100,18060.000,0.200,14145.000,0.300,2169.000,0.500,121.000,1.000,54.000,5.000,0
"07/10/06","06:10:50","AMMA06",34444.000,"cc",28310.059,6.00,2831.006,1,6,0.100,17939.000,0.200,14199.000,0.300,2159.000,0.500,111.000,1.000,36.000,5.000,0
"07/10/06","06:10:56","AMMA06",34052.000,"cc",28346.156,6.00,2834.616,1,6,0.100,17953.000,0.200,13751.000,0.300,2197.000,0.500,111.000,1.000,40.000,5.000,0
"07/10/06","06:11:02","AMMA06",34441.000,"cc",28312.871,6.00,2831.287,1,6,0.100,18195.000,0.200,13782.000,0.300,2286.000,0.500,129.000,1.000,49.000,5.000,0
"07/10/06","06:11:08","AMMA06",34468.000,"cc",28323.867,6.00,2832.387,1,6,0.100,18026.000,0.200,14068.000,0.300,2239.000,0.500,107.000,1.000,28.000,5.000,0
"07/10/06","06:11:14","AMMA06",33869.000,"cc",28279.090,6.00,2827.909,1,6,0.100,17729.000,0.200,13977.000,0.300,2010.000,0.500,105.000,1.000,48.000,5.000,0
"07/10/06","06:11:20","AMMA06",34486.000,"cc",28293.988,6.00,2829.399,1,6,0.100,18055.000,0.200,14008.000,0.300,2270.000,0.500,108.000,1.000,45.000,5.000,0
"07/10/06","06:11:26","AMMA06",34087.000,"cc",28344.762,6.00,2834.476,1,6,0.100,18157.000,0.200,13681.000,0.300,2091.000,0.500,118.000,1.000,40.000,5.000,0
"07/10/06","06:11:32","AMMA06",33929.000,"cc",28304.750,6.00,2830.475,1,6,0.100,17815.000,0.200,13792.000,0.300,2169.000,0.500,102.000,1.000,51.000,5.000,0
"07/10/06","06:11:38","AMMA06",34222.000,"cc",28314.643,6.00,2831.464,1,6,0.100,18079.000,0.200,13858.000,0.300,2133.000,0.500,116.000,1.000,36.000,5.000,0
"07/10/06","06:11:44","AMMA06",34083.000,"cc",28316.453,6.00,2831.646,1,6,0.100,17987.000,0.200,13760.000,0.300,2166.000,0.500,114.000,1.000,56.000,5.000,0
"07/10/06","06:11:50","AMMA06",34569.000,"cc",28336.121,6.00,2833.612,1,6,0.100,18233.000,0.200,13970.000,0.300,2198.000,0.500,113.000,1.000,55.000,5.000,0
"07/10/06","06:11:56","AMMA06",34468.000,"cc",28345.297,6.00,2834.530,1,6,0.100,18154.000,0.200,13997.000,0.300,2168.000,0.500,101.000,1.000,48.000,5.000,0
"07/10/06","06:12:02","AMMA06",34865.000,"cc",28322.158,6.00,2832.216,1,6,0.100,18322.000,0.200,14150.000,0.300,2228.000,0.500,117.000,1.000,48.000,5.000,0
"07/10/06","06:12:08","AMMA06",34818.000,"cc",28274.867,6.00,2827.487,1,6,0.100,18513.000,0.200,13952.000,0.300,2201.000,0.500,105.000,1.000,47.000,5.000,0
"07/10/06","06:12:14","AMMA06",34917.000,"cc",28280.063,6.00,2828.006,1,6,0.100,18351.000,0.200,14241.000,0.300,2190.000,0.500,95.000,1.000,40.000,5.000,0
"07/10/06","06:12:20","AMMA06",34715.000,"cc",28332.002,6.00,2833.200,1,6,0.100,18161.000,0.200,14184.000,0.300,2203.000,0.500,108.000,1.000,59.000,5.000,0
"07/10/06","06:12:26","AMMA06",34731.000,"cc",28349.316,6.00,2834.932,1,6,0.100,18273.000,0.200,14130.000,0.300,2170.000,0.500,113.000,1.000,45.000,5.000,0
"07/10/06","06:12:32","AMMA06",34951.000,"cc",28340.652,6.00,2834.065,1,6,0.100,18456.000,0.200,14135.000,0.300,2177.000,0.500,125.000,1.000,58.000,5.000,0
"07/10/06","06:12:38","AMMA06",34631.000,"cc",28333.285,6.00,2833.329,1,6,0.100,18198.000,0.200,14124.000,0.300,2152.000,0.500,110.000,1.000,47.000,5.000,0
"07/10/06","06:12:44","AMMA06",34698.000,"cc",28285.711,6.00,2828.571,1,6,0.100,18359.000,0.200,14075.000,0.300,2117.000,0.500,100.000,1.000,47.000,5.000,0
"07/10/06","06:12:50","AMMA06",34610.000,"cc",28317.357,6.00,2831.736,1,6,0.100,17961.000,0.200,14276.000,0.300,2202.000,0.500,112.000,1.000,59.000,5.000,0
"07/10/06","06:12:56","AMMA06",35039.000,"cc",28260.338,6.00,2826.034,1,6,0.100,18417.000,0.200,14250.000,0.300,2194.000,0.500,123.000,1.000,55.000,5.000,0
"07/10/06","06:13:02","AMMA06",34529.000,"cc",28342.559,6.00,2834.256,1,6,0.100,18037.000,0.200,14188.000,0.300,2129.000,0.500,119.000,1.000,56.000,5.000,0
"07/10/06","06:13:08","AMMA06",34509.000,"cc",28360.147,6.00,2836.015,1,6,0.100,18105.000,0.200,14030.000,0.300,2223.000,0.500,111.000,1.000,40.000,5.000,0
"07/10/06","06:13:14","AMMA06",34919.000,"cc",28327.525,6.00,2832.753,1,6,0.100,18235.000,0.200,14304.000,0.300,2223.000,0.500,120.000,1.000,37.000,5.000,0
"07/10/06","06:13:20","AMMA06",34645.000,"cc",28302.666,6.00,2830.267,1,6,0.100,18295.000,0.200,13967.000,0.300,2214.000,0.500,124.000,1.000,45.000,5.000,0
"07/10/06","06:13:26","AMMA06",34932.000,"cc",28337.441,6.00,2833.744,1,6,0.100,18225.000,0.200,14340.000,0.300,2205.000,0.500,121.000,1.000,41.000,5.000,0
"07/10/06","06:13:32","AMMA06",34395.000,"cc",28313.719,6.00,2831.372,1,6,0.100,18127.000,0.200,14033.000,0.300,2078.000,0.500,102.000,1.000,55.000,5.000,0
"07/10/06","06:13:38","AMMA06",34712.000,"cc",28257.809,6.00,2825.781,1,6,0.100,18219.000,0.200,14228.000,0.300,2106.000,0.500,104.000,1.000,55.000,5.000,0
"07/10/06","06:13:44","AMMA06",34639.000,"cc",28356.861,6.00,2835.686,1,6,0.100,18224.000,0.200,14139.000,0.300,2093.000,0.500,133.000,1.000,50.000,5.000,0
"07/10/06","06:13:50","AMMA06",34558.000,"cc",28341.947,6.00,2834.195,1,6,0.100,17930.000,0.200,14248.000,0.300,2216.000,0.500,116.000,1.000,48.000,5.000,0
"07/10/06","06:13:56","AMMA06",34598.000,"cc",28304.285,6.00,2830.429,1,6,0.100,18030.000,0.200,14186.000,0.300,2209.000,0.500,116.000,1.000,57.000,5.000,0
"07/10/06","06:14:02","AMMA06",34832.000,"cc",28295.141,6.00,2829.514,1,6,0.100,18113.000,0.200,14416.000,0.300,2149.000,0.500,115.000,1.000,39.000,5.000,0
"07/10/06","06:14:08","AMMA06",34702.000,"cc",28341.236,6.00,2834.124,1,6,0.100,18197.000,0.200,14101.000,0.300,2243.000,0.500,119.000,1.000,42.000,5.000,0
"07/10/06","06:14:14","AMMA06",35243.000,"cc",28336.348,6.00,2833.635,1,6,0.100,18306.000,0.200,14467.000,0.300,2281.000,0.500,144.000,1.000,45.000,5.000,0
"07/10/06","06:14:20","AMMA06",34891.000,"cc",28301.045,6.00,2830.105,1,6,0.100,18249.000,0.200,14256.000,0.300,2255.000,0.500,92.000,1.000,39.000,5.000,0